| time (UTC) | temp F | wind direction | speed knots | gust knots | rain 1hr in | rain 24hr in | rain mn in | humidity % | barometer mb |
| 20260906110003 | 69 | 153 | 0.0 | 0.0 | 0.00 | 0.00 | 0.00 | 82 | 1015.2 |
| 20260906105503 | 70 | 153 | 0.0 | 0.0 | 0.00 | 0.00 | 0.00 | 82 | 1015.2 |
| 20260906105003 | 70 | 153 | 0.0 | 0.0 | 0.00 | 0.00 | 0.00 | 82 | 1015.3 |
| 20260906104502 | 70 | 153 | 0.0 | 0.0 | 0.00 | 0.00 | 0.00 | 82 | 1015.2 |
| 20260906104002 | 70 | 153 | 0.0 | 0.0 | 0.00 | 0.00 | 0.00 | 81 | 1015.2 |
| 20260906103503 | 70 | 153 | 0.0 | 0.0 | 0.00 | 0.00 | 0.00 | 82 | 1015.2 |
| 20260906103003 | 70 | 153 | 0.0 | 0.0 | 0.00 | 0.00 | 0.00 | 82 | 1015.3 |
| 20260906102503 | 70 | 153 | 0.0 | 0.0 | 0.00 | 0.00 | 0.00 | 82 | 1015.2 |
| 20260906102003 | 70 | 153 | 0.0 | 0.0 | 0.00 | 0.00 | 0.00 | 82 | 1015.2 |
| 20260906101503 | 70 | 153 | 0.0 | 0.0 | 0.00 | 0.00 | 0.00 | 82 | 1015.1 |
| 20260906101003 | 70 | 153 | 0.0 | 0.0 | 0.00 | 0.00 | 0.00 | 81 | 1015.0 |
| 20260906100503 | 70 | 153 | 0.0 | 0.0 | 0.00 | 0.00 | 0.00 | 82 | 1015.1 |
| 20260906100002 | 70 | 153 | 0.0 | 0.0 | 0.00 | 0.00 | 0.00 | 81 | 1015.1 |
| 20260906095503 | 70 | 153 | 0.0 | 0.0 | 0.00 | 0.00 | 0.00 | 81 | 1015.0 |
| 20260906094503 | 70 | 153 | 0.0 | 0.0 | 0.00 | 0.00 | 0.00 | 81 | 1015.0 |
| 20260906093502 | 70 | 153 | 0.0 | 0.0 | 0.00 | 0.00 | 0.00 | 81 | 1014.9 |
| 20260906093003 | 70 | 153 | 0.0 | 0.0 | 0.00 | 0.00 | 0.00 | 81 | 1014.9 |
| 20260906092502 | 70 | 153 | 0.0 | 0.0 | 0.00 | 0.00 | 0.00 | 81 | 1015.0 |
| 20260906092003 | 70 | 153 | 0.0 | 0.0 | 0.00 | 0.00 | 0.00 | 81 | 1014.9 |
| 20260906091503 | 70 | 153 | 0.0 | 0.0 | 0.00 | 0.00 | 0.00 | 82 | 1014.9 |
| 20260906091003 | 69 | 153 | 0.0 | 0.0 | 0.00 | 0.00 | 0.00 | 82 | 1014.9 |
| 20260906090003 | 70 | 153 | 0.9 | 2.6 | 0.00 | 0.00 | 0.00 | 82 | 1014.7 |
| 20260906085503 | 70 | 315 | 0.0 | 0.0 | 0.00 | 0.00 | 0.00 | 82 | 1014.4 |
| 20260906085003 | 69 | 315 | 0.0 | 0.0 | 0.00 | 0.00 | 0.00 | 82 | 1014.4 |
| 20260906084003 | 69 | 315 | 0.0 | 0.0 | 0.00 | 0.00 | 0.00 | 82 | 1014.4 |
| 20260906083503 | 69 | 315 | 0.0 | 0.0 | 0.00 | 0.00 | 0.00 | 82 | 1014.4 |
| 20260906083003 | 69 | 315 | 0.0 | 0.0 | 0.00 | 0.00 | 0.00 | 82 | 1014.3 |
| 20260906082503 | 69 | 315 | 0.0 | 0.0 | 0.00 | 0.00 | 0.00 | 82 | 1014.3 |
| 20260906082003 | 69 | 315 | 0.0 | 0.0 | 0.00 | 0.00 | 0.00 | 81 | 1014.2 |
| 20260906081502 | 69 | 315 | 0.0 | 0.0 | 0.00 | 0.00 | 0.00 | 81 | 1014.1 |
| 20260906081003 | 69 | 315 | 0.0 | 0.0 | 0.00 | 0.00 | 0.00 | 81 | 1014.1 |
| 20260906080503 | 69 | 315 | 0.0 | 0.0 | 0.00 | 0.00 | 0.00 | 81 | 1014.2 |
| 20260906080002 | 69 | 315 | 0.0 | 0.0 | 0.00 | 0.00 | 0.00 | 80 | 1014.2 |
| 20260906075502 | 69 | 315 | 0.0 | 0.0 | 0.00 | 0.00 | 0.00 | 80 | 1014.2 |
| 20260906075004 | 69 | 315 | 0.0 | 0.0 | 0.00 | 0.00 | 0.00 | 79 | 1014.1 |
| 20260906074003 | 70 | 315 | 0.0 | 0.0 | 0.00 | 0.00 | 0.00 | 79 | 1014.1 |
| 20260906073503 | 69 | 315 | 0.0 | 0.0 | 0.00 | 0.00 | 0.00 | 79 | 1014.0 |
| 20260906073003 | 70 | 315 | 0.0 | 0.0 | 0.00 | 0.00 | 0.00 | 79 | 1014.0 |
| 20260906072503 | 70 | 315 | 0.0 | 0.0 | 0.00 | 0.00 | 0.00 | 79 | 1014.0 |
| 20260906072003 | 70 | 315 | 0.0 | 0.0 | 0.00 | 0.00 | 0.00 | 79 | 1014.1 |
| 20260906071503 | 70 | 315 | 0.0 | 0.0 | 0.00 | 0.00 | 0.00 | 79 | 1014.2 |
| 20260906071003 | 70 | 315 | 0.0 | 0.0 | 0.00 | 0.00 | 0.00 | 79 | 1014.1 |
| 20260906070503 | 70 | 315 | 0.0 | 0.0 | 0.00 | 0.00 | 0.00 | 78 | 1014.2 |
| 20260906070004 | 70 | 315 | 0.0 | 0.0 | 0.00 | 0.00 | 0.00 | 78 | 1014.4 |
| 20260906065503 | 70 | 315 | 0.0 | 0.0 | 0.00 | 0.00 | 0.00 | 78 | 1014.4 |
| 20260906065003 | 70 | 315 | 0.0 | 0.0 | 0.00 | 0.00 | 0.00 | 78 | 1014.4 |
| 20260906064003 | 70 | 315 | 0.0 | 0.0 | 0.00 | 0.00 | 0.00 | 77 | 1014.4 |
| 20260906063503 | 71 | 315 | 0.0 | 0.0 | 0.00 | 0.00 | 0.00 | 77 | 1014.5 |
| 20260906063003 | 71 | 315 | 0.0 | 0.0 | 0.00 | 0.00 | 0.00 | 76 | 1014.5 |
| 20260906062503 | 71 | 315 | 0.0 | 0.0 | 0.00 | 0.00 | 0.00 | 76 | 1014.7 |
| 20260906062003 | 71 | 315 | 0.0 | 0.0 | 0.00 | 0.00 | 0.00 | 76 | 1014.7 |
| 20260906061503 | 71 | 315 | 0.0 | 0.0 | 0.00 | 0.00 | 0.00 | 76 | 1014.7 |
| 20260906060004 | 71 | 315 | 0.0 | 0.0 | 0.00 | 0.00 | 0.00 | 76 | 1014.7 |
| 20260906055004 | 71 | 315 | 0.0 | 0.0 | 0.00 | 0.00 | 0.00 | 75 | 1014.7 |
| 20260906054003 | 71 | 315 | 0.0 | 0.0 | 0.00 | 0.00 | 0.00 | 75 | 1014.9 |
| 20260906053503 | 71 | 315 | 0.0 | 0.0 | 0.00 | 0.00 | 0.00 | 75 | 1014.9 |
| 20260906053004 | 71 | 315 | 0.0 | 0.0 | 0.00 | 0.00 | 0.00 | 75 | 1015.0 |
| 20260906052503 | 71 | 315 | 0.0 | 0.0 | 0.00 | 0.00 | 0.00 | 74 | 1014.9 |
| 20260906051503 | 72 | 315 | 0.0 | 0.0 | 0.00 | 0.00 | 0.00 | 73 | 1014.8 |
| 20260906050503 | 72 | 315 | 0.0 | 0.0 | 0.00 | 0.00 | 0.00 | 72 | 1014.8 |
| 20260906050004 | 72 | 315 | 0.0 | 0.0 | 0.00 | 0.00 | 0.00 | 72 | 1014.7 |
| 20260906045503 | 72 | 315 | 0.0 | 0.0 | 0.00 | 0.00 | 0.00 | 71 | 1014.7 |
| 20260906044503 | 73 | 315 | 0.0 | 0.0 | 0.00 | 0.00 | 0.00 | 71 | 1014.8 |
| 20260906044003 | 73 | 315 | 0.0 | 0.0 | 0.00 | 0.00 | 0.00 | 71 | 1014.7 |
| 20260906043503 | 72 | 315 | 0.0 | 0.0 | 0.00 | 0.00 | 0.00 | 70 | 1014.5 |
| 20260906043003 | 73 | 315 | 0.0 | 0.0 | 0.00 | 0.00 | 0.00 | 70 | 1014.5 |
| 20260906042503 | 73 | 315 | 0.0 | 0.0 | 0.00 | 0.00 | 0.00 | 69 | 1014.5 |
| 20260906042003 | 73 | 315 | 0.0 | 0.0 | 0.00 | 0.00 | 0.00 | 68 | 1014.7 |
| 20260906041503 | 73 | 315 | 0.0 | 0.0 | 0.00 | 0.00 | 0.00 | 68 | 1014.8 |
| 20260906041004 | 73 | 315 | 0.0 | 0.0 | 0.00 | 0.00 | 0.00 | 68 | 1014.9 |
| 20260906040503 | 73 | 315 | 0.0 | 1.7 | 0.00 | 0.00 | 0.00 | 67 | 1014.8 |
| 20260906040004 | 74 | 312 | 2.6 | 1.7 | 0.00 | 0.00 | 0.00 | 67 | 1014.8 |
| 20260906035504 | 74 | 345 | 0.9 | 1.7 | 0.00 | 0.00 | 0.00 | 66 | 1014.9 |
| 20260906035003 | 74 | 254 | 1.7 | 1.7 | 0.00 | 0.00 | 0.00 | 66 | 1014.9 |
| 20260906034503 | 74 | 295 | 1.7 | 1.7 | 0.00 | 0.00 | 0.00 | 65 | 1015.0 |
| 20260906034003 | 74 | 305 | 0.9 | 1.7 | 0.00 | 0.00 | 0.00 | 65 | 1015.0 |
| 20260906033503 | 74 | 199 | 0.0 | 0.0 | 0.00 | 0.00 | 0.00 | 65 | 1015.1 |
| 20260906033003 | 75 | 199 | 0.0 | 0.0 | 0.00 | 0.00 | 0.00 | 64 | 1015.2 |
| 20260906032003 | 75 | 199 | 0.0 | 0.0 | 0.00 | 0.00 | 0.00 | 63 | 1015.1 |
| 20260906031503 | 75 | 199 | 0.0 | 0.0 | 0.00 | 0.00 | 0.00 | 63 | 1015.1 |
| 20260906031003 | 75 | 199 | 0.0 | 1.7 | 0.00 | 0.00 | 0.00 | 63 | 1015.1 |
| 20260906030503 | 76 | 292 | 3.5 | 4.3 | 0.00 | 0.00 | 0.00 | 62 | 1015.1 |
| 20260906025504 | 76 | 298 | 0.0 | 0.0 | 0.00 | 0.00 | 0.00 | 60 | 1014.9 |
| 20260906024503 | 76 | 298 | 0.0 | 0.0 | 0.00 | 0.00 | 0.00 | 60 | 1014.8 |
| 20260906023504 | 77 | 353 | 0.0 | 0.0 | 0.00 | 0.00 | 0.00 | 59 | 1014.8 |
| 20260906023004 | 77 | 353 | 0.0 | 0.0 | 0.00 | 0.00 | 0.00 | 58 | 1014.7 |
| 20260906022503 | 78 | 353 | 0.0 | 0.0 | 0.00 | 0.00 | 0.00 | 57 | 1014.5 |
| 20260906021503 | 78 | 304 | 0.9 | 4.3 | 0.00 | 0.00 | 0.00 | 54 | 1014.4 |
| 20260906021003 | 78 | 357 | 0.0 | 1.7 | 0.00 | 0.00 | 0.00 | 54 | 1014.5 |
| 20260906020504 | 78 | 322 | 0.0 | 0.0 | 0.00 | 0.00 | 0.00 | 54 | 1014.4 |
| 20260906020004 | 78 | 329 | 3.5 | 5.2 | 0.00 | 0.00 | 0.00 | 54 | 1014.3 |
| 20260906015503 | 78 | 338 | 2.6 | 6.1 | 0.00 | 0.00 | 0.00 | 54 | 1014.2 |
| 20260906015003 | 78 | 359 | 1.7 | 5.2 | 0.00 | 0.00 | 0.00 | 54 | 1014.2 |
| 20260906014503 | 78 | 12 | 1.7 | 7.0 | 0.00 | 0.00 | 0.00 | 54 | 1014.1 |
| 20260906013503 | 78 | 329 | 2.6 | 7.8 | 0.00 | 0.00 | 0.00 | 54 | 1014.1 |
| 20260906013004 | 78 | 338 | 1.7 | 5.2 | 0.00 | 0.00 | 0.00 | 54 | 1014.1 |
| 20260906012503 | 78 | 266 | 1.7 | 2.6 | 0.00 | 0.00 | 0.00 | 54 | 1014.0 |
| 20260906012003 | 78 | 195 | 0.0 | 2.6 | 0.00 | 0.00 | 0.00 | 54 | 1013.9 |
| 20260906011503 | 78 | 263 | 0.0 | 2.6 | 0.00 | 0.00 | 0.00 | 54 | 1013.9 |
| 20260906011003 | 78 | 270 | 0.9 | 1.7 | 0.00 | 0.00 | 0.00 | 54 | 1013.8 |
| 20260906010503 | 78 | 352 | 0.0 | 2.6 | 0.00 | 0.00 | 0.00 | 54 | 1013.8 |
| 20260906010003 | 78 | 162 | 0.0 | 0.0 | 0.00 | 0.00 | 0.00 | 53 | 1013.7 |
| 20260906005504 | 78 | 162 | 0.0 | 1.7 | 0.00 | 0.00 | 0.00 | 53 | 1013.8 |
| 20260906005003 | 78 | 175 | 1.7 | 2.6 | 0.00 | 0.00 | 0.00 | 53 | 1013.8 |
| 20260906004003 | 78 | 270 | 0.9 | 1.7 | 0.00 | 0.00 | 0.00 | 52 | 1013.6 |
| 20260906003504 | 79 | 203 | 0.9 | 5.2 | 0.00 | 0.00 | 0.00 | 52 | 1013.6 |
| 20260906003004 | 79 | 208 | 1.7 | 4.3 | 0.00 | 0.00 | 0.00 | 52 | 1013.5 |
| 20260906002503 | 79 | 149 | 0.0 | 2.6 | 0.00 | 0.00 | 0.00 | 52 | 1013.5 |
| 20260906002005 | 79 | 341 | 1.7 | 1.7 | 0.00 | 0.00 | 0.00 | 51 | 1013.6 |
| 20260906001503 | 80 | 133 | 0.0 | 0.0 | 0.00 | 0.00 | 0.00 | 51 | 1013.4 |
| 20260906001004 | 80 | 169 | 1.7 | 4.3 | 0.00 | 0.00 | 0.00 | 50 | 1013.3 |
| 20260906000504 | 80 | 247 | 1.7 | 5.2 | 0.00 | 0.00 | 0.00 | 50 | 1013.3 |
| 20260906000003 | 80 | 226 | 0.9 | 5.2 | 0.00 | 0.00 | 0.00 | 49 | 1013.1 |
| 20260905235504 | 80 | 126 | 0.0 | 0.9 | 0.00 | 0.00 | 0.00 | 49 | 1013.1 |
| 20260905235003 | 80 | 92 | 0.0 | 1.7 | 0.00 | 0.00 | 0.00 | 49 | 1013.0 |
| 20260905234504 | 80 | 236 | 0.9 | 4.3 | 0.00 | 0.00 | 0.00 | 49 | 1013.0 |
| 20260905234004 | 81 | 298 | 1.7 | 4.3 | 0.00 | 0.00 | 0.00 | 48 | 1013.0 |
| 20260905233504 | 81 | 205 | 1.7 | 5.2 | 0.00 | 0.00 | 0.00 | 48 | 1013.0 |
| 20260905233003 | 81 | 73 | 0.0 | 7.0 | 0.00 | 0.00 | 0.00 | 48 | 1013.1 |
| 20260905232503 | 81 | 218 | 3.5 | 6.1 | 0.00 | 0.00 | 0.00 | 48 | 1013.1 |
| 20260905231004 | 81 | 334 | 0.9 | 6.1 | 0.00 | 0.00 | 0.00 | 47 | 1013.1 |
| 20260905230504 | 82 | 151 | 0.0 | 5.2 | 0.00 | 0.00 | 0.00 | 48 | 1013.1 |
| 20260905230003 | 82 | 234 | 0.0 | 0.0 | 0.00 | 0.00 | 0.00 | 47 | 1013.1 |
| 20260905225503 | 82 | 268 | 0.9 | 5.2 | 0.00 | 0.00 | 0.00 | 47 | 1013.2 |
| 20260905225003 | 82 | 213 | 1.7 | 7.8 | 0.00 | 0.00 | 0.00 | 47 | 1013.2 |
| 20260905224503 | 82 | 202 | 1.7 | 7.8 | 0.00 | 0.00 | 0.00 | 47 | 1013.2 |
| 20260905224004 | 82 | 307 | 0.9 | 2.6 | 0.00 | 0.00 | 0.00 | 47 | 1013.1 |
| 20260905223504 | 83 | 192 | 0.9 | 1.7 | 0.00 | 0.00 | 0.00 | 47 | 1013.2 |
| 20260905223004 | 83 | 137 | 0.9 | 5.2 | 0.00 | 0.00 | 0.00 | 45 | 1013.1 |
| 20260905222503 | 83 | 277 | 1.7 | 4.3 | 0.00 | 0.00 | 0.00 | 46 | 1013.2 |
| 20260905221503 | 84 | 106 | 0.0 | 0.0 | 0.00 | 0.00 | 0.00 | 47 | 1013.1 |
| 20260905221004 | 84 | 106 | 0.0 | 2.6 | 0.00 | 0.00 | 0.00 | 46 | 1013.0 |
| 20260905220003 | 84 | 57 | 0.0 | 5.2 | 0.00 | 0.00 | 0.00 | 46 | 1013.0 |
| 20260905215503 | 84 | 222 | 1.7 | 7.0 | 0.00 | 0.00 | 0.00 | 46 | 1013.0 |
| 20260905215004 | 84 | 239 | 1.7 | 6.1 | 0.00 | 0.00 | 0.00 | 46 | 1013.0 |
| 20260905214503 | 84 | 183 | 0.0 | 4.3 | 0.00 | 0.00 | 0.00 | 46 | 1013.0 |
| 20260905214003 | 85 | 281 | 2.6 | 6.1 | 0.00 | 0.00 | 0.00 | 45 | 1013.0 |
| 20260905213503 | 85 | 102 | 2.6 | 7.8 | 0.00 | 0.00 | 0.00 | 45 | 1012.9 |
| 20260905213003 | 85 | 95 | 0.9 | 4.3 | 0.00 | 0.00 | 0.00 | 45 | 1012.8 |
| 20260905212503 | 85 | 247 | 0.9 | 2.6 | 0.00 | 0.00 | 0.00 | 45 | 1012.6 |
| 20260905212003 | 85 | 34 | 0.9 | 5.2 | 0.00 | 0.00 | 0.00 | 45 | 1012.6 |
| 20260905211504 | 85 | 346 | 4.3 | 6.1 | 0.00 | 0.00 | 0.00 | 44 | 1012.5 |
| 20260905211003 | 85 | 57 | 0.9 | 2.6 | 0.00 | 0.00 | 0.00 | 44 | 1012.5 |
| 20260905210503 | 85 | 155 | 0.9 | 2.6 | 0.00 | 0.00 | 0.00 | 44 | 1012.6 |
| 20260905210003 | 85 | 27 | 4.3 | 7.0 | 0.00 | 0.00 | 0.00 | 44 | 1012.6 |
| 20260905205503 | 85 | 195 | 1.7 | 4.3 | 0.00 | 0.00 | 0.00 | 44 | 1012.5 |
| 20260905205004 | 85 | 144 | 2.6 | 2.6 | 0.00 | 0.00 | 0.00 | 44 | 1012.5 |
| 20260905204503 | 85 | 150 | 1.7 | 2.6 | 0.00 | 0.00 | 0.00 | 43 | 1012.5 |
| 20260905204004 | 85 | 236 | 1.7 | 4.3 | 0.00 | 0.00 | 0.00 | 43 | 1012.6 |
| 20260905203503 | 85 | 196 | 2.6 | 5.2 | 0.00 | 0.00 | 0.00 | 43 | 1012.5 |
| 20260905202004 | 85 | 191 | 4.3 | 6.1 | 0.00 | 0.00 | 0.00 | 41 | 1012.6 |
| 20260905201504 | 85 | 234 | 3.5 | 8.7 | 0.00 | 0.00 | 0.00 | 41 | 1012.5 |
| 20260905200504 | 86 | 313 | 4.3 | 7.0 | 0.00 | 0.00 | 0.00 | 40 | 1012.3 |
| 20260905200004 | 86 | 142 | 2.6 | 6.1 | 0.00 | 0.00 | 0.00 | 40 | 1012.3 |
| 20260905195504 | 86 | 139 | 2.6 | 7.8 | 0.00 | 0.00 | 0.00 | 39 | 1012.2 |
| 20260905195004 | 85 | 223 | 2.6 | 10.4 | 0.00 | 0.00 | 0.00 | 40 | 1012.3 |
| 20260905194504 | 85 | 79 | 6.1 | 10.4 | 0.00 | 0.00 | 0.00 | 40 | 1012.2 |
| 20260905194004 | 85 | 46 | 1.7 | 7.0 | 0.00 | 0.00 | 0.00 | 44 | 1012.2 |
| 20260905193503 | 85 | 304 | 4.3 | 10.4 | 0.00 | 0.00 | 0.00 | 46 | 1012.1 |
| 20260905193004 | 85 | 157 | 2.6 | 6.1 | 0.00 | 0.00 | 0.00 | 47 | 1012.2 |
| 20260905192504 | 84 | 5 | 3.5 | 6.1 | 0.00 | 0.00 | 0.00 | 48 | 1012.4 |
| 20260905192004 | 84 | 132 | 2.6 | 8.7 | 0.00 | 0.00 | 0.00 | 47 | 1012.5 |
| 20260905191504 | 84 | 54 | 4.3 | 8.7 | 0.00 | 0.00 | 0.00 | 48 | 1012.5 |
| 20260905191004 | 84 | 157 | 1.7 | 8.7 | 0.00 | 0.00 | 0.00 | 48 | 1012.6 |
| 20260905190504 | 84 | 343 | 1.7 | 6.1 | 0.00 | 0.00 | 0.00 | 50 | 1012.5 |
| 20260905185504 | 83 | 151 | 2.6 | 7.8 | 0.00 | 0.00 | 0.00 | 51 | 1013.1 |
| 20260905185004 | 83 | 64 | 2.6 | 8.7 | 0.00 | 0.00 | 0.00 | 51 | 1013.3 |
| 20260905184503 | 83 | 248 | 5.2 | 10.4 | 0.00 | 0.00 | 0.00 | 53 | 1013.5 |
| 20260905184004 | 82 | 169 | 3.5 | 8.7 | 0.00 | 0.00 | 0.00 | 52 | 1013.7 |
| 20260905183004 | 82 | 198 | 7.8 | 13.0 | 0.00 | 0.00 | 0.00 | 52 | 1013.8 |
| 20260905182503 | 82 | 308 | 10.4 | 19.1 | 0.00 | 0.00 | 0.00 | 51 | 1014.0 |
| 20260905182004 | 82 | 225 | 8.7 | 11.3 | 0.00 | 0.00 | 0.00 | 52 | 1014.0 |
| 20260905181504 | 82 | 208 | 6.1 | 18.2 | 0.00 | 0.00 | 0.00 | 52 | 1014.0 |
| 20260905181004 | 82 | 306 | 7.8 | 13.0 | 0.00 | 0.00 | 0.00 | 53 | 1013.9 |
| 20260905180504 | 82 | 323 | 8.7 | 13.0 | 0.00 | 0.00 | 0.00 | 51 | 1014.1 |
| 20260905180004 | 82 | 311 | 3.5 | 7.8 | 0.00 | 0.00 | 0.00 | 51 | 1014.0 |
| 20260905175504 | 82 | 320 | 6.1 | 13.0 | 0.00 | 0.00 | 0.00 | 51 | 1013.8 |
| 20260905174502 | 83 | 324 | 1.7 | 5.2 | 0.00 | 0.00 | 0.00 | 51 | 1013.9 |
| 20260905174002 | 83 | 190 | 2.6 | 7.0 | 0.00 | 0.00 | 0.00 | 50 | 1014.0 |
| 20260905173502 | 83 | 43 | 6.1 | 8.7 | 0.00 | 0.00 | 0.00 | 49 | 1014.1 |
| 20260905173002 | 83 | 184 | 0.9 | 5.2 | 0.00 | 0.00 | 0.00 | 50 | 1013.7 |
| 20260905171502 | 83 | 193 | 6.1 | 10.4 | 0.00 | 0.00 | 0.00 | 51 | 1014.0 |
| 20260905171003 | 82 | 215 | 7.8 | 14.8 | 0.00 | 0.00 | 0.00 | 50 | 1014.1 |
| 20260905170503 | 83 | 228 | 5.2 | 10.4 | 0.00 | 0.00 | 0.00 | 51 | 1014.1 |
| 20260905170003 | 83 | 247 | 7.0 | 10.4 | 0.00 | 0.00 | 0.00 | 51 | 1014.5 |
| 20260905165503 | 83 | 268 | 6.1 | 8.7 | 0.00 | 0.00 | 0.00 | 51 | 1014.5 |
| 20260905165002 | 83 | 294 | 7.8 | 12.2 | 0.00 | 0.00 | 0.00 | 50 | 1014.7 |
| 20260905164502 | 83 | 240 | 1.7 | 8.7 | 0.00 | 0.00 | 0.00 | 51 | 1014.8 |
| 20260905164003 | 83 | 234 | 2.6 | 7.0 | 0.00 | 0.00 | 0.00 | 52 | 1014.9 |
| 20260905163502 | 83 | 206 | 4.3 | 7.8 | 0.00 | 0.00 | 0.00 | 52 | 1014.8 |
| 20260905162503 | 82 | 204 | 4.3 | 7.8 | 0.00 | 0.00 | 0.00 | 53 | 1015.2 |
| 20260905162003 | 82 | 193 | 3.5 | 7.8 | 0.00 | 0.00 | 0.00 | 53 | 1015.2 |
| 20260905161502 | 83 | 198 | 5.2 | 7.0 | 0.00 | 0.00 | 0.00 | 52 | 1015.3 |
| 20260905161002 | 82 | 326 | 3.5 | 7.0 | 0.00 | 0.00 | 0.00 | 53 | 1015.2 |
| 20260905160503 | 82 | 85 | 0.9 | 6.1 | 0.00 | 0.00 | 0.00 | 53 | 1015.4 |
| 20260905160002 | 82 | 38 | 1.7 | 7.0 | 0.00 | 0.00 | 0.00 | 53 | 1015.5 |
| 20260905155003 | 82 | 63 | 4.3 | 7.8 | 0.00 | 0.00 | 0.00 | 56 | 1015.6 |
| 20260905154502 | 81 | 89 | 0.9 | 4.3 | 0.00 | 0.00 | 0.00 | 57 | 1015.7 |
| 20260905154003 | 81 | 224 | 4.3 | 6.1 | 0.00 | 0.00 | 0.00 | 59 | 1015.8 |
| 20260905153503 | 81 | 303 | 3.5 | 7.0 | 0.00 | 0.00 | 0.00 | 60 | 1015.9 |
| 20260905153002 | 80 | 66 | 0.9 | 5.2 | 0.00 | 0.00 | 0.00 | 59 | 1015.9 |
| 20260905152503 | 81 | 113 | 2.6 | 5.2 | 0.00 | 0.00 | 0.00 | 59 | 1015.9 |
| 20260905152002 | 81 | 102 | 2.6 | 5.2 | 0.00 | 0.00 | 0.00 | 59 | 1015.8 |
| 20260905151003 | 81 | 84 | 0.0 | 12.2 | 0.00 | 0.00 | 0.00 | 60 | 1015.9 |
| 20260905150503 | 81 | 98 | 1.7 | 5.2 | 0.00 | 0.00 | 0.00 | 60 | 1015.8 |
| 20260905150003 | 81 | 83 | 0.9 | 5.2 | 0.00 | 0.00 | 0.00 | 60 | 1015.6 |
| 20260905145503 | 81 | 326 | 0.0 | 2.6 | 0.00 | 0.00 | 0.00 | 60 | 1015.5 |
| 20260905145002 | 81 | 271 | 0.9 | 2.6 | 0.00 | 0.00 | 0.00 | 60 | 1015.4 |
| 20260905144003 | 82 | 240 | 4.3 | 7.8 | 0.00 | 0.00 | 0.00 | 58 | 1015.3 |
| 20260905143503 | 82 | 260 | 0.0 | 5.2 | 0.00 | 0.00 | 0.00 | 59 | 1015.3 |
| 20260905143003 | 82 | 163 | 2.6 | 7.0 | 0.00 | 0.00 | 0.00 | 58 | 1015.4 |
| 20260905142503 | 82 | 223 | 4.3 | 7.8 | 0.00 | 0.00 | 0.00 | 57 | 1015.4 |
| 20260905142003 | 82 | 215 | 6.1 | 10.4 | 0.00 | 0.00 | 0.00 | 57 | 1015.3 |
| 20260905141502 | 82 | 203 | 5.2 | 11.3 | 0.00 | 0.00 | 0.00 | 58 | 1015.3 |
| 20260905141003 | 82 | 213 | 2.6 | 7.0 | 0.00 | 0.00 | 0.00 | 58 | 1015.3 |
| 20260905140503 | 81 | 110 | 2.6 | 7.8 | 0.00 | 0.00 | 0.00 | 58 | 1015.1 |
| 20260905140002 | 81 | 348 | 5.2 | 10.4 | 0.00 | 0.00 | 0.00 | 58 | 1015.2 |
| 20260905134502 | 79 | 335 | 4.3 | 7.8 | 0.00 | 0.00 | 0.00 | 66 | 1015.3 |
| 20260905134002 | 78 | 66 | 0.0 | 4.3 | 0.00 | 0.00 | 0.00 | 68 | 1015.3 |
| 20260905133503 | 78 | 71 | 1.7 | 5.2 | 0.00 | 0.00 | 0.00 | 68 | 1015.2 |
| 20260905133003 | 77 | 229 | 1.7 | 10.4 | 0.00 | 0.00 | 0.00 | 68 | 1015.1 |
| 20260905132502 | 77 | 193 | 3.5 | 6.1 | 0.00 | 0.00 | 0.00 | 69 | 1015.0 |
| 20260905132002 | 77 | 66 | 1.7 | 6.1 | 0.00 | 0.00 | 0.00 | 69 | 1015.0 |
| 20260905130502 | 76 | 235 | 3.5 | 6.1 | 0.00 | 0.00 | 0.00 | 72 | 1014.9 |
| 20260905130003 | 75 | 139 | 2.6 | 7.8 | 0.00 | 0.00 | 0.00 | 73 | 1014.9 |
| 20260905125503 | 74 | 295 | 5.2 | 7.8 | 0.00 | 0.00 | 0.00 | 75 | 1015.0 |
| 20260905125003 | 73 | 358 | 1.7 | 4.3 | 0.00 | 0.00 | 0.00 | 78 | 1015.0 |
| 20260905124503 | 73 | 47 | 2.6 | 2.6 | 0.00 | 0.00 | 0.00 | 79 | 1014.9 |
| 20260905124003 | 72 | 261 | 0.0 | 0.0 | 0.00 | 0.00 | 0.00 | 79 | 1015.0 |
| 20260905123003 | 72 | 75 | 0.0 | 0.9 | 0.00 | 0.00 | 0.00 | 80 | 1015.0 |
| 20260905122503 | 71 | 85 | 0.9 | 2.6 | 0.00 | 0.00 | 0.00 | 81 | 1015.1 |
| 20260905122003 | 71 | 81 | 2.6 | 2.6 | 0.00 | 0.00 | 0.00 | 81 | 1015.0 |
| 20260905121503 | 71 | 27 | 0.9 | 5.2 | 0.00 | 0.00 | 0.00 | 81 | 1015.0 |
| 20260905121003 | 71 | 45 | 0.0 | 0.0 | 0.00 | 0.00 | 0.00 | 81 | 1015.0 |
| 20260905120002 | 70 | 137 | 2.6 | 6.1 | 0.00 | 0.00 | 0.00 | 81 | 1015.1 |
| 20260905115503 | 70 | 74 | 1.7 | 2.6 | 0.00 | 0.00 | 0.00 | 82 | 1015.0 |
| 20260905115003 | 70 | 343 | 0.9 | 5.2 | 0.00 | 0.00 | 0.00 | 82 | 1014.9 |
| 20260905114503 | 70 | 264 | 0.0 | 0.0 | 0.00 | 0.00 | 0.00 | 82 | 1014.8 |
| 20260905114003 | 70 | 264 | 0.0 | 0.0 | 0.00 | 0.00 | 0.00 | 81 | 1014.9 |
| 20260905113503 | 70 | 264 | 0.0 | 0.0 | 0.00 | 0.00 | 0.00 | 81 | 1014.8 |
| 20260905113002 | 69 | 264 | 0.0 | 0.0 | 0.00 | 0.00 | 0.00 | 81 | 1014.8 |
| 20260905111503 | 69 | 264 | 0.0 | 0.0 | 0.00 | 0.00 | 0.00 | 81 | 1014.8 |